Starlink 11420

operational
NORAD ID: 62591 Int'l Des: 2025-008 Owner: SPXS Country: US Constellation: starlink
LEOCIRCULAR

About Starlink 11420

Description loading...

Live Position

Loading 3D Globe...

Upcoming Passes

Altitude History

Altitude vs Time

uPlot chart will show altitude changes over time

Two-Line Element Set

1 62591U 25008E 25259.66670139 .00047972 00000-0 37581-3 0 9995
2 62591 43.0009 95.2596 0001701 266.7590 84.0374 15.70800440 6013
Epoch: Sep 16, 2025 • Age: 28 hours

Current Status

Altitude 355.9 km
Velocity 7.70 km/s
Sub-Earth Point 0.80°N, 159.53°E
Launch Date Jan 13, 2025
Age 0.6 years
Type internet

Technical Details

Classification Payload
Mass 960.00 kg
Dry Mass 910.00 kg
Total Mass 960.00 kg
Length 0.30 m
Diameter 4.10 m
Span 29.00 m
Shape Box + pan
Manufacturer SPXS
Bus Type Starlink V2MD
Phase Status In Orbit
Owner/State SPXS/US

Large Constellations

Loading constellations...